| time (UTC) | temp C | wind direction | speed KPH | gust KPH | rain 1hr cm | rain 24hr cm | rain mn cm | humidity % | barometer mb |
| 20260505204553 | 12 | 224 | 0.0 | 0.0 | 0.00 | 0.23 | 0.23 | 85 | 1005.9 |
| 20260505203053 | 12 | 244 | 0.0 | 0.0 | 0.00 | 0.23 | 0.23 | 86 | 1005.8 |
| 20260505201559 | 12 | 227 | 0.0 | 0.0 | 0.00 | 0.23 | 0.23 | 86 | 1005.5 |
| 20260505200050 | 12 | 227 | 0.0 | 0.0 | 0.00 | 0.23 | 0.23 | 86 | 1005.6 |
| 20260505194548 | 12 | 229 | 0.0 | 0.0 | 0.00 | 0.23 | 0.23 | 86 | 1005.6 |
| 20260505193050 | 12 | 226 | 0.0 | 0.0 | 0.00 | 0.23 | 0.23 | 86 | 1005.7 |
| 20260505191552 | 12 | 225 | 0.0 | 0.0 | 0.00 | 0.23 | 0.23 | 86 | 1005.5 |
| 20260505190058 | 12 | 246 | 0.0 | 0.0 | 0.00 | 0.23 | 0.23 | 86 | 1005.4 |
| 20260505184552 | 13 | 244 | 0.0 | 0.0 | 0.00 | 0.23 | 0.23 | 86 | 1005.2 |
| 20260505183049 | 13 | 240 | 0.0 | 0.0 | 0.00 | 0.23 | 0.23 | 86 | 1005.2 |
| 20260505181539 | 13 | 221 | 0.0 | 0.0 | 0.00 | 0.23 | 0.23 | 85 | 1004.8 |
| 20260505180041 | 13 | 213 | 0.0 | 0.0 | 0.00 | 0.23 | 0.23 | 85 | 1004.7 |
| 20260505174540 | 13 | 200 | 0.0 | 0.0 | 0.00 | 0.23 | 0.23 | 85 | 1004.9 |
| 20260505173040 | 13 | 202 | 0.0 | 0.0 | 0.03 | 0.23 | 0.23 | 85 | 1004.8 |
| 20260505171540 | 13 | 227 | 0.0 | 8.0 | 0.10 | 0.23 | 0.23 | 85 | 1004.6 |
| 20260505170035 | 13 | 200 | 3.2 | 11.3 | 0.15 | 0.23 | 0.23 | 86 | 1004.6 |
| 20260505164537 | 13 | 197 | 8.0 | 19.3 | 0.20 | 0.23 | 0.23 | 86 | 1004.6 |
| 20260505163033 | 14 | 247 | 8.0 | 16.1 | 0.20 | 0.20 | 0.20 | 86 | 1004.9 |
| 20260505161532 | 14 | 182 | 4.8 | 17.7 | 0.13 | 0.13 | 0.13 | 86 | 1005.3 |
| 20260505153030 | 16 | 206 | 17.7 | 40.2 | 0.00 | 0.00 | 0.00 | 79 | 1004.8 |
| 20260505151524 | 20 | 360 | 20.9 | 32.2 | 0.00 | 0.00 | 0.00 | 65 | 1004.2 |
| 20260505124514 | 23 | 223 | 0.0 | 0.0 | 0.00 | 0.00 | 0.00 | 44 | 1004.3 |
| 20260505123009 | 23 | 277 | 0.0 | 0.0 | 0.00 | 0.00 | 0.00 | 44 | 1004.4 |
| 20260505121510 | 23 | 283 | 0.0 | 9.7 | 0.00 | 0.00 | 0.00 | 45 | 1004.4 |
| 20260505120005 | 23 | 252 | 6.4 | 12.9 | 0.00 | 0.00 | 0.00 | 43 | 1004.6 |
| 20260505114503 | 22 | 5 | 0.0 | 0.0 | 0.00 | 0.00 | 0.00 | 48 | 1004.8 |
| 20260505113001 | 22 | 11 | 0.0 | 0.0 | 0.00 | 0.00 | 0.00 | 51 | 1004.8 |
| 20260505111603 | 22 | 13 | 3.2 | 14.5 | 0.00 | 0.00 | 0.00 | 52 | 1005.0 |
| 20260505101552 | 22 | 16 | 0.0 | 0.0 | 0.00 | 0.00 | 0.00 | 56 | 1005.4 |
| 20260505100048 | 21 | 12 | 0.0 | 0.0 | 0.00 | 0.00 | 0.00 | 60 | 1005.6 |
| 20260505094547 | 21 | 11 | 0.0 | 0.0 | 0.00 | 0.00 | 0.00 | 60 | 1005.7 |
| 20260505093046 | 20 | 17 | 0.0 | 0.0 | 0.00 | 0.00 | 0.00 | 63 | 1006.1 |
| 20260505091544 | 20 | 15 | 0.0 | 0.0 | 0.00 | 0.00 | 0.00 | 65 | 1006.2 |
| 20260505090046 | 20 | 32 | 0.0 | 0.0 | 0.00 | 0.00 | 0.00 | 68 | 1006.3 |
| 20260505084531 | 19 | 37 | 0.0 | 0.0 | 0.00 | 0.00 | 0.00 | 66 | 1006.4 |
| 20260505083028 | 18 | 13 | 0.0 | 0.0 | 0.00 | 0.00 | 0.00 | 67 | 1006.5 |
| 20260505081535 | 18 | 15 | 0.0 | 0.0 | 0.00 | 0.00 | 0.00 | 70 | 1006.5 |
| 20260505080043 | 18 | 15 | 0.0 | 0.0 | 0.00 | 0.00 | 0.00 | 69 | 1006.7 |
| 20260505074520 | 17 | 11 | 0.0 | 0.0 | 0.00 | 0.00 | 0.00 | 71 | 1006.7 |
| 20260505073017 | 17 | 10 | 0.0 | 0.0 | 0.00 | 0.00 | 0.00 | 73 | 1006.9 |
| 20260505071510 | 17 | 286 | 0.0 | 0.0 | 0.00 | 0.00 | 0.00 | 74 | 1007.3 |
| 20260505070011 | 16 | 266 | 0.0 | 0.0 | 0.00 | 0.00 | 0.00 | 77 | 1007.3 |
| 20260505064508 | 16 | 265 | 0.0 | 0.0 | 0.00 | 0.00 | 0.00 | 79 | 1007.2 |
| 20260505063006 | 15 | 262 | 0.0 | 0.0 | 0.00 | 0.00 | 0.00 | 80 | 1007.4 |
| 20260505061509 | 15 | 258 | 0.0 | 0.0 | 0.00 | 0.00 | 0.00 | 80 | 1007.5 |
| 20260505060003 | 15 | 261 | 0.0 | 0.0 | 0.00 | 0.00 | 0.00 | 81 | 1007.6 |
| 20260505054602 | 15 | 262 | 0.0 | 0.0 | 0.00 | 0.00 | 0.00 | 80 | 1007.4 |
| 20260505053056 | 15 | 266 | 0.0 | 0.0 | 0.00 | 0.00 | 0.00 | 79 | 1007.5 |
| 20260505051555 | 15 | 13 | 0.0 | 0.0 | 0.00 | 0.00 | 0.00 | 80 | 1007.5 |
| 20260505050124 | 14 | 15 | 0.0 | 0.0 | 0.00 | 0.00 | 0.00 | 80 | 1007.5 |
| 20260505041601 | 13 | 360 | 0.0 | 0.0 | 0.00 | 0.00 | 0.00 | 79 | 1007.6 |
| 20260505040054 | 14 | 295 | 0.0 | 0.0 | 0.00 | 0.00 | 0.00 | 79 | 1007.6 |
| 20260505034543 | 14 | 273 | 0.0 | 0.0 | 0.00 | 0.00 | 0.00 | 79 | 1007.6 |
| 20260505033046 | 14 | 272 | 0.0 | 0.0 | 0.00 | 0.00 | 0.00 | 79 | 1007.5 |
| 20260505031546 | 14 | 271 | 0.0 | 0.0 | 0.00 | 0.00 | 0.00 | 78 | 1007.7 |
| 20260505030041 | 14 | 271 | 0.0 | 0.0 | 0.00 | 0.00 | 0.00 | 78 | 1007.8 |
| 20260505024535 | 14 | 272 | 0.0 | 0.0 | 0.00 | 0.00 | 0.00 | 77 | 1008.0 |
| 20260505023039 | 15 | 271 | 0.0 | 0.0 | 0.00 | 0.00 | 0.00 | 77 | 1008.2 |
| 20260505021531 | 15 | 269 | 0.0 | 0.0 | 0.00 | 0.00 | 0.00 | 76 | 1008.3 |
| 20260505020034 | 15 | 292 | 0.0 | 0.0 | 0.00 | 0.00 | 0.00 | 76 | 1008.4 |
| 20260505014529 | 15 | 293 | 0.0 | 0.0 | 0.00 | 0.00 | 0.00 | 75 | 1008.3 |
| 20260505013027 | 15 | 273 | 0.0 | 0.0 | 0.00 | 0.00 | 0.00 | 75 | 1008.3 |
| 20260505011530 | 15 | 272 | 0.0 | 0.0 | 0.00 | 0.00 | 0.00 | 74 | 1008.4 |
| 20260505010023 | 15 | 266 | 0.0 | 0.0 | 0.00 | 0.00 | 0.00 | 73 | 1008.8 |
| 20260505004532 | 15 | 259 | 0.0 | 0.0 | 0.00 | 0.00 | 0.00 | 73 | 1008.9 |
| 20260505003017 | 16 | 257 | 0.0 | 0.0 | 0.00 | 0.00 | 0.00 | 72 | 1009.2 |
| 20260505001515 | 16 | 259 | 0.0 | 0.0 | 0.00 | 0.00 | 0.00 | 71 | 1009.4 |
| 20260505000023 | 16 | 259 | 0.0 | 0.0 | 0.00 | 0.00 | 0.00 | 70 | 1009.4 |
| 20260504234513 | 16 | 295 | 0.0 | 0.0 | 0.00 | 0.00 | 0.00 | 70 | 1009.4 |
| 20260504233011 | 16 | 280 | 0.0 | 0.0 | 0.00 | 0.00 | 0.00 | 69 | 1009.5 |
| 20260504231509 | 16 | 279 | 0.0 | 0.0 | 0.00 | 0.00 | 0.00 | 69 | 1009.6 |
| 20260504230015 | 16 | 259 | 0.0 | 0.0 | 0.00 | 0.00 | 0.00 | 69 | 1009.7 |
| 20260504224505 | 16 | 260 | 0.0 | 0.0 | 0.00 | 0.00 | 0.00 | 68 | 1009.8 |
| 20260504223004 | 16 | 259 | 0.0 | 0.0 | 0.00 | 0.00 | 0.00 | 67 | 1009.8 |
| 20260504221505 | 16 | 293 | 0.0 | 0.0 | 0.00 | 0.00 | 0.00 | 67 | 1009.9 |
| 20260504220002 | 16 | 251 | 0.0 | 0.0 | 0.00 | 0.00 | 0.00 | 66 | 1009.9 |
| 20260504214604 | 17 | 251 | 0.0 | 0.0 | 0.00 | 0.00 | 0.00 | 65 | 1010.0 |
| 20260504213137 | 17 | 248 | 0.0 | 0.0 | 0.00 | 0.00 | 0.00 | 64 | 1010.1 |
| 20260504211605 | 17 | 272 | 0.0 | 0.0 | 0.00 | 0.00 | 0.00 | 63 | 1010.1 |
| 20260504210057 | 17 | 249 | 0.0 | 0.0 | 0.00 | 0.00 | 0.00 | 62 | 1010.2 |